Regional Weather Roundup
Issued by NWS

Home | Current Version | Previous Version | Text Only | Print | Product List | Glossary On
Versions: 1 2 3 4 5 6 7 8 9 10 11 12 13 14 15 16 17 18 19 20 21 22 23 24 25 26 27
000
ASPQ40 PGUM 291112
RWRPQ
WEATHER ROUNDUP FOR THE MARIANAS AND MICRONESIA
NATIONAL WEATHER SERVICE TIYAN GU
900 PM CHST SAT APR 29 2017

GUZ001>004-291200-
MARIANA ISLANDS-

CITY           SKY/WX    TMP DP  RH WIND       PRES   REMARKS
GUAM AIRPORT   CLEAR     81  75  83 CALM      29.94R
ANDERSEN AFB   PTCLDY    79  75  89 SE6       29.95R
ROTA AIRPORT   NOT AVBL
TINIAN AP      NOT AVBL
SAIPAN AP      PTCLDY    79  73  83 E5        29.94R

$$

PMZ161-291200-
REPUBLIC OF PALAU-

CITY           SKY/WX    TMP DP  RH WIND       PRES   REMARKS
KOROR AP       NOT AVBL
KOROR WSO      PTCLDY    84  77  79 SE5       29.86R HX  94

$$

PMZ171>174-291200-
FEDERATED STATES OF MICRONESIA-

CITY           SKY/WX    TMP DP  RH WIND       PRES   REMARKS
YAP AIRPORT    PTCLDY    81  77  89 VRB3      29.87R
CHUUK AP       PTCLDY    82  77  83 NE8       29.86R HX  91
POHNPEI AP     CLOUDY    82  77  83 E12       29.84S HX  91
POHNPEI WSO    NOT AVBL
KOSRAE AP      NOT AVBL

$$

PMZ181-291200-
REPUBLIC OF THE MARSHALL ISLANDS-

CITY           SKY/WX    TMP DP  RH WIND       PRES   REMARKS
KWAJALEIN AP   PTCLDY    82  73  74 NE18      29.89R
MAJURO AP      NOT AVBL
MAJURO WSO     MOCLDY    81  77  89 E12       29.85R

$$





USA.gov is the U.S. government's official web portal to all federal, state and local government web resources and services.